Vorticity
20 14 11 8 4 6 6 6 8 5 5 7 8 8 8 8 8 7 5 5 3 2 2 2 3 6 11 15 16 16 14 12 10 9 8 5 3 3 3 4 6 5 6 6 6 8 9 11 12 11 11 9 8 7 5 5 4 2 3 4 3 3 4 5 6 4 2 4 6 6 5 6 5 4 6 6 7 7 6 4 3 4 5 6 5 5 5 6
17 12 7 5 3 5 4 5 6 5 7 6 7 7 7 7 6 5 4 3 1 1 3 6 10 15 17 16 13 13 11 9 8 5 4 4 3 4 4 4 6 7 9 10 11 11 12 11 9 7 6 5 5 4 4 4 4 3 4 5 5 4 6 6 6 5 5 7 7 6 6 6 6 6 6 6 7 7 7 5 3 5 6 6 6 6 7 6
12 10 5 4 4 4 4 6 5 5 5 5 7 7 7 6 5 4 3 1 2 4 9 14 17 16 14 12 10 11 7 4 4 3 3 5 4 5 7 9 11 11 11 10 8 8 8 7 4 4 4 3 3 3 4 4 4 6 7 7 7 7 8 8 7 7 8 8 8 8 7 7 7 7 7 7 6 8 7 5 5 6 6 6 6 6 6 6
8 7 5 4 3 3 4 5 5 5 5 6 7 7 7 5 4 3 1 2 6 11 16 17 14 11 10 9 7 6 6 3 3 5 6 7 9 11 11 10 9 7 7 6 4 4 3 3 1 3 4 5 7 8 10 11 12 13 12 12 10 9 10 9 9 8 7 7 7 7 6 6 7 8 7 6 6 7 6 5 6 6 5 6 6 5 6 5
6 4 3 3 3 3 3 4 5 6 6 7 7 6 6 4 3 2 3 8 13 16 15 12 11 9 7 6 4 3 5 5 6 10 11 10 10 9 8 7 5 4 3 2 2 3 4 6 9 12 13 14 15 16 16 15 14 13 11 9 9 8 8 8 8 7 6 6 6 6 6 6 7 7 6 6 6 6 5 5 5 5 5 5 5 5 5 5
4 3 2 3 3 3 3 4 5 6 6 6 7 5 4 3 2 4 9 15 16 14 10 9 9 6 5 4 4 6 8 9 11 11 9 7 6 4 3 3 3 3 4 7 11 15 16 17 18 16 16 15 11 12 11 9 8 7 7 7 7 6 5 7 6 6 6 6 6 5 5 4 3 4 4 5 6 6 6 6 6 6 5 4 4 4 4 5
4 2 4 5 3 2 2 3 5 6 6 6 6 4 3 2 5 11 16 16 13 10 8 7 5 4 5 6 8 10 11 10 8 7 5 3 2 1 3 6 11 14 17 20 20 19 15 14 13 7 9 7 4 9 6 4 6 4 7 9 6 3 4 6 3 2 3 5 4 3 4 4 3 4 6 7 6 6 6 7 7 6 6 6 6 6 6 6
5 4 4 5 3 2 1 2 5 6 6 6 5 3 3 6 13 17 15 11 9 7 6 4 4 7 9 9 11 8 6 5 4 3 2 1 4 10 16 19 20 18 16 13 10 9 5 8 7 1 9 6 2 9 5 3 5 2 5 6 2 2 4 4 1 1 4 5 4 4 6 6 6 7 11 10 5 6 8 8 8 8 8 7 6 7 7 7
4 4 3 4 4 2 1 1 4 6 6 5 3 3 8 14 17 14 10 8 6 4 4 6 9 11 10 8 7 4 2 1 1 4 9 14 18 19 17 13 10 8 7 4 5 6 1 7 7 -2 5 7 2 5 4 4 2 -1 2 1 -0 4 5 3 4 5 7 7 6 7 8 7 8 10 12 9 6 9 10 8 8 8 7 7 7 7 7 6
4 3 3 3 3 3 2 1 5 8 6 3 4 9 14 15 13 9 7 5 4 5 8 11 10 9 7 4 2 1 3 7 11 16 19 18 14 9 6 5 4 6 7 3 6 10 -0 1 8 1 -0 1 3 1 0 4 2 2 5 3 4 7 7 7 8 8 7 8 8 7 7 7 8 10 11 8 8 9 6 7 8 7 7 7 8 8 8 9
4 3 3 3 4 3 1 3 8 8 3 5 10 14 14 11 9 6 4 5 7 11 11 9 6 3 1 1 4 9 15 18 18 15 11 7 5 4 4 5 4 4 10 5 2 11 7 -1 3 6 3 -0 4 2 1 6 5 7 9 7 9 9 8 8 8 7 7 7 7 7 7 10 10 9 9 7 7 6 5 7 6 6 7 6 7 8 8 9
4 3 3 4 5 2 2 8 9 4 4 11 14 13 10 7 6 4 7 10 12 11 8 4 1 1 4 10 16 18 17 12 8 6 4 4 6 6 4 5 4 -0 5 6 0 4 7 3 -0 2 6 5 7 7 8 9 7 9 9 9 10 8 8 7 7 7 7 7 8 7 7 14 13 6 7 7 6 7 5 6 5 6 6 6 8 7 8 8
6 5 4 4 5 4 6 9 5 4 11 15 13 10 7 5 6 9 12 12 8 5 3 2 3 9 15 17 16 11 5 2 4 7 6 3 2 5 6 5 6 1 -1 2 2 1 3 6 6 5 7 8 8 9 10 9 8 9 7 9 9 9 10 8 8 8 7 8 10 7 3 14 15 5 8 9 7 8 7 7 6 6 7 7 8 8 10 9
10 8 6 6 8 7 6 5 6 12 15 13 9 7 6 8 11 11 10 5 2 2 4 10 14 16 14 8 5 5 6 4 2 4 7 7 2 3 5 3 6 6 4 4 5 7 5 7 10 9 8 9 9 9 9 8 9 8 7 9 8 9 13 12 9 7 7 6 7 5 -2 8 17 9 9 10 8 10 8 8 7 8 10 9 10 10 11 9
12 12 10 10 8 4 4 8 13 16 13 8 6 7 9 11 10 6 3 1 3 7 12 16 14 9 5 4 4 5 6 6 4 2 3 7 5 3 4 6 6 6 8 8 9 11 9 9 9 9 8 10 10 9 9 8 8 7 5 9 8 6 12 14 10 5 6 5 5 7 -2 4 17 12 9 9 9 10 7 8 9 10 11 10 11 12 11 9
14 13 11 8 4 4 10 15 16 12 7 6 8 10 10 8 3 1 2 6 13 15 12 10 6 4 4 5 5 3 3 5 6 4 1 4 7 5 5 7 8 8 8 8 9 10 9 9 9 9 9 8 8 7 8 8 8 7 5 8 8 5 9 14 14 8 7 8 7 10 3 5 16 13 10 10 8 8 7 10 11 10 12 13 13 13 12 10
13 10 7 6 6 11 16 16 11 6 6 8 10 9 5 1 1 4 10 14 14 10 5 4 4 3 3 4 3 4 4 3 4 6 4 4 6 7 6 8 10 9 9 9 10 9 7 8 8 8 6 7 7 5 6 7 8 8 8 10 10 9 10 11 15 12 10 12 11 11 7 9 17 13 8 9 8 9 9 10 10 12 14 14 13 12 10 9
7 5 6 9 12 16 15 10 5 5 9 10 7 3 0 2 7 12 13 10 5 3 4 4 4 2 2 4 3 4 5 4 4 6 6 4 7 10 6 9 10 7 8 9 9 6 5 7 7 7 6 7 8 6 7 7 8 10 8 10 11 14 17 12 11 11 7 12 16 16 11 13 19 14 10 10 10 12 12 12 12 12 12 10 10 9 7 8
3 5 9 13 16 15 9 5 6 9 9 6 2 -0 3 9 14 13 7 3 4 5 5 4 5 4 3 4 4 4 6 8 6 7 9 5 9 10 5 10 10 5 8 7 7 5 5 8 6 7 8 8 9 8 10 9 9 10 7 9 9 10 17 16 13 9 1 5 19 21 12 13 20 19 15 15 14 15 15 16 15 12 9 8 8 6 6 8
4 10 15 16 14 9 5 6 9 10 5 -0 -0 4 10 13 11 5 1 1 2 2 4 6 5 4 4 5 6 5 4 7 6 8 10 7 10 9 4 9 7 5 7 7 8 5 6 9 7 9 9 8 10 9 11 10 9 10 5 7 9 5 9 15 14 9 1 3 18 18 7 15 22 17 17 17 15 15 14 13 12 10 10 10 10 9 11 13
12 16 17 13 8 5 6 9 9 5 -0 -0 5 11 13 8 2 -0 1 2 1 0 0 3 6 6 7 7 8 9 8 10 9 9 9 5 9 7 3 8 7 5 6 7 9 6 8 11 8 10 8 6 9 7 9 9 7 7 3 4 8 4 4 11 12 9 7 7 14 13 4 16 21 12 16 16 12 13 13 12 11 10 11 10 11 12 12 10
17 16 11 6 6 7 10 11 6 0 1 7 12 12 7 3 3 3 2 2 3 4 2 2 5 7 7 6 9 11 10 13 10 7 8 5 7 7 4 8 7 6 7 8 9 7 10 9 6 7 5 5 5 3 5 6 6 5 3 5 7 6 6 11 10 8 13 9 11 13 5 13 17 9 14 14 13 17 13 11 11 8 9 10 11 9 7 6
13 9 6 7 9 11 10 6 1 3 8 12 9 5 3 2 3 3 3 5 4 6 8 7 6 7 9 7 10 11 7 10 8 3 7 6 5 7 5 7 7 7 8 7 7 6 7 5 4 4 4 5 4 4 5 4 7 5 5 8 7 9 10 11 10 9 15 11 10 13 5 11 14 8 17 17 15 17 11 10 9 8 10 8 9 9 7 10
7 7 9 12 12 9 4 2 5 10 10 7 3 2 2 2 3 3 3 6 8 10 10 9 6 7 10 8 10 12 5 7 8 4 7 7 5 7 6 7 8 6 5 5 5 5 5 4 5 5 6 6 5 7 6 5 7 4 6 8 6 10 9 10 11 9 15 14 13 15 4 8 17 13 18 19 15 13 9 10 9 9 10 7 8 9 8 10
7 10 12 11 6 2 2 7 11 10 5 2 1 1 2 4 6 8 8 6 6 8 9 11 9 6 9 8 7 10 5 4 6 4 5 6 5 7 7 6 5 5 5 5 4 5 7 6 6 7 7 8 7 7 7 7 6 4 6 6 6 8 7 12 14 10 12 12 19 20 -1 -1 19 20 16 15 13 11 8 11 11 8 8 8 7 7 8 8
10 11 9 3 1 2 7 11 8 3 0 -0 -0 0 2 4 6 7 10 9 6 6 8 11 11 7 8 7 5 9 8 2 3 4 5 7 7 6 7 6 5 5 5 5 5 6 7 7 6 7 7 9 8 8 8 7 6 6 6 5 6 7 9 15 18 12 6 9 22 20 -2 -3 15 20 18 16 10 8 12 11 9 9 8 8 6 7 9 8
10 7 2 -0 2 7 9 8 2 -1 0 1 3 4 3 5 8 7 7 10 8 6 7 8 9 8 7 6 5 7 7 3 4 5 5 6 5 4 6 6 5 5 5 5 5 6 6 6 6 6 8 10 8 8 9 6 6 7 5 6 7 8 12 15 19 13 1 9 21 15 5 2 9 20 17 12 10 9 13 11 8 11 8 7 9 10 11 11
6 1 1 4 8 9 7 3 0 1 2 3 5 7 8 8 9 9 7 9 10 8 7 5 6 7 5 5 6 4 5 7 6 4 5 5 4 4 4 4 5 6 5 3 3 5 5 4 5 5 8 10 9 9 9 7 7 7 5 7 8 9 13 15 17 12 2 12 18 13 15 4 6 28 16 4 14 11 10 12 9 9 8 11 13 9 15 24
2 2 5 9 9 6 3 1 2 3 3 4 6 8 10 8 7 8 8 8 9 9 9 6 6 6 4 3 4 4 4 6 3 -0 1 1 -1 1 2 3 5 7 10 7 4 5 3 2 2 3 6 8 9 10 10 8 7 8 6 6 9 10 12 15 15 9 5 17 18 14 20 2 -3 23 16 5 15 11 10 12 5 9 12 9 12 17 27 34
2 5 7 7 5 3 2 3 3 3 3 6 9 10 12 10 8 7 5 5 5 5 7 7 5 5 5 4 4 5 4 3 4 2 2 3 3 5 6 6 6 6 9 4 -2 -1 -1 0 0 2 5 6 9 11 10 9 7 7 5 4 11 10 10 17 17 12 8 15 22 18 19 8 -4 9 15 12 14 10 9 9 7 12 9 8 24 36 28 16
3 6 6 5 4 3 2 2 2 2 5 7 9 10 10 10 11 9 4 5 6 4 4 4 5 5 5 6 5 5 4 3 5 6 6 7 6 4 1 -1 -2 -6 -7 -8 -8 -2 0 1 -1 0 5 6 9 10 9 10 7 6 7 6 10 9 12 19 17 14 8 11 23 19 12 14 6 5 12 13 13 10 7 10 11 8 11 26 38 32 12 0
4 6 5 3 3 2 3 4 6 7 9 10 9 9 8 7 9 10 7 7 6 4 4 3 5 5 5 5 4 4 4 2 3 3 2 -0 -4 -4 -4 -4 -2 -3 -3 -0 2 3 1 1 -0 1 6 8 9 9 7 8 6 7 9 9 11 9 10 16 14 10 6 13 29 20 5 11 12 8 12 13 9 7 10 12 9 15 30 37 28 14 7 1
5 4 3 3 4 5 5 7 10 11 10 10 8 8 9 6 5 6 6 7 5 4 4 3 4 4 4 4 3 4 3 2 3 1 -0 1 0 1 2 2 4 4 5 7 7 5 3 4 4 3 7 10 10 9 8 7 8 9 11 12 16 12 2 6 12 4 -6 8 29 22 7 8 10 13 15 12 8 8 13 10 12 32 38 22 10 3 -1 -6
4 4 5 6 6 6 6 8 11 12 8 8 6 4 6 5 4 4 4 5 5 4 5 4 3 4 4 4 3 4 4 1 2 1 0 4 2 1 2 1 3 4 3 5 7 9 8 9 9 5 7 11 9 8 6 7 9 10 11 14 18 16 4 4 17 8 -11 -0 21 18 11 9 9 15 15 8 9 12 10 12 27 38 20 1 -0 -4 -7 -2
4 6 6 7 8 8 9 10 11 10 8 7 7 5 5 5 4 4 4 4 4 3 4 4 4 4 3 5 3 4 4 1 2 2 0 3 1 0 3 3 4 5 3 4 7 8 7 8 8 5 7 8 6 6 5 6 8 8 11 13 16 17 6 2 19 21 -2 -2 17 16 10 14 15 15 13 7 10 13 11 20 33 21 -4 -9 -3 -5 -1 4
6 7 7 7 9 10 11 10 8 8 6 5 6 4 4 5 5 4 3 4 4 4 4 3 5 4 3 6 4 3 4 2 2 3 1 3 3 3 4 4 4 5 4 6 7 7 6 6 4 2 5 6 6 7 7 6 6 7 10 10 12 20 14 -0 6 18 5 -5 13 19 6 11 20 12 8 9 9 12 14 18 17 1 -8 -2 2 5 11 12
7 7 7 8 9 9 10 9 7 7 5 3 3 4 3 3 5 5 4 4 3 4 5 4 4 6 5 6 5 4 5 4 4 4 3 4 4 3 4 4 4 5 5 6 7 6 4 3 1 1 4 7 8 8 6 5 6 6 7 7 8 15 22 16 4 6 4 -11 -1 20 15 13 22 12 4 10 12 12 13 11 7 5 8 13 15 18 22 23
7 7 7 9 9 8 8 7 5 5 5 4 2 3 5 5 5 4 4 5 4 3 5 4 4 6 5 5 5 5 6 5 4 4 3 4 3 3 5 4 4 5 6 6 6 6 4 3 3 4 5 6 7 8 6 5 7 6 7 11 14 11 14 22 15 5 5 -6 -15 2 20 24 18 9 6 11 13 11 11 12 13 16 18 18 20 22 22 23
6 7 9 9 8 8 7 6 4 3 5 5 3 3 5 4 4 4 4 4 5 4 4 4 4 5 5 4 4 5 4 2 2 2 2 3 3 3 4 4 5 6 7 5 5 5 5 3 3 4 6 4 4 5 3 3 6 9 10 12 16 16 11 19 25 12 7 11 -8 -20 8 31 16 5 13 13 11 12 12 14 16 16 18 18 19 20 18 18
7 9 9 8 8 7 6 6 6 5 4 5 4 4 5 5 4 4 5 4 5 5 4 4 3 3 4 3 1 3 3 1 2 3 2 2 3 2 3 5 6 6 6 5 4 4 4 3 2 2 3 4 5 5 3 3 8 10 11 11 12 13 9 12 24 21 13 24 11 -21 -5 27 17 8 17 12 10 16 15 15 17 16 19 19 19 19 17 18
8 9 7 7 7 7 5 6 6 5 4 5 4 4 4 4 4 5 5 5 4 4 4 3 3 3 2 2 0 1 2 1 2 3 3 3 3 3 4 6 7 7 5 5 4 4 5 4 2 2 3 4 4 2 0 4 10 9 8 13 15 14 10 4 6 13 16 25 22 -3 -4 18 17 11 16 13 14 20 16 17 20 19 22 21 20 21 20 21
7 7 7 7 6 7 7 6 6 5 5 5 5 6 4 3 3 4 5 5 4 4 4 3 3 3 2 2 1 2 3 3 3 4 3 4 4 4 6 6 7 7 6 5 5 6 7 5 3 3 3 1 -0 -1 1 3 8 11 9 11 16 17 17 12 1 1 7 12 17 8 3 17 21 14 13 14 17 20 19 21 21 21 24 21 18 21 21 18
7 6 6 7 8 8 6 5 6 6 5 4 3 4 5 6 5 3 3 5 5 4 4 4 4 4 4 3 3 3 4 3 4 4 4 4 4 5 6 7 7 7 6 5 6 8 9 8 6 3 -1 -3 -4 -3 0 3 6 11 10 8 13 16 15 16 12 8 8 9 13 5 1 19 25 14 13 17 18 21 22 23 21 18 20 19 17 19 16 10
8 8 7 9 10 9 6 7 7 7 6 5 4 3 2 4 6 6 4 4 5 5 4 4 5 4 4 5 4 3 4 4 3 4 5 5 5 5 6 7 5 6 6 5 6 8 9 10 9 8 7 4 4 2 1 4 9 13 10 5 9 13 10 9 12 13 12 15 19 5 -4 16 24 14 17 21 18 22 24 23 23 18 16 17 16 15 10 7
7 8 9 10 9 7 8 8 6 6 6 5 6 6 5 4 4 6 6 4 4 6 4 4 4 4 4 5 5 3 3 4 3 5 6 6 5 4 6 6 4 5 6 5 6 7 7 8 7 8 11 9 9 8 4 3 7 11 12 7 6 11 12 7 6 10 9 14 26 15 -3 9 20 13 18 23 18 21 24 21 22 21 19 19 13 9 9 12
8 8 8 8 6 6 9 8 5 6 6 5 6 6 7 8 5 4 6 5 4 5 5 4 3 4 4 4 4 3 2 3 4 5 6 6 5 4 5 5 3 5 6 5 7 8 7 7 6 4 4 3 3 4 3 3 4 5 10 9 7 13 17 7 2 7 7 7 23 26 8 7 16 13 14 19 18 21 23 17 16 19 20 18 12 9 15 22
8 7 6 6 6 7 8 7 5 5 5 6 7 7 7 9 7 4 5 6 5 5 5 5 4 3 4 3 4 3 2 3 4 5 5 4 4 5 5 4 3 5 6 6 8 9 8 7 6 3 1 -0 2 4 3 4 3 3 8 8 7 14 17 8 2 10 13 2 5 17 13 9 13 14 15 18 17 20 22 17 15 20 20 15 11 15 24 31
6 6 5 4 6 7 7 6 6 6 7 6 7 9 8 7 8 7 5 5 6 5 5 6 5 4 4 4 4 4 3 3 4 4 4 3 3 4 4 4 4 5 6 7 7 8 9 8 6 4 1 -0 2 3 2 3 4 4 6 6 9 13 11 7 8 15 19 10 0 6 14 12 11 13 16 20 20 19 18 17 18 21 19 13 12 20 30 32
6 6 6 5 6 6 6 6 5 6 7 7 8 9 9 8 7 7 6 5 6 6 6 7 6 5 4 4 3 3 3 3 3 3 3 4 4 3 3 4 4 5 5 5 6 7 7 8 7 5 3 0 1 2 2 4 5 3 3 6 10 12 8 8 13 16 18 17 10 8 13 14 12 15 17 19 23 22 15 15 21 22 14 8 14 25 31 31
4 4 5 5 5 6 6 7 7 6 7 7 8 9 9 9 8 7 7 6 6 6 6 7 7 6 5 4 3 3 2 2 3 2 2 4 4 2 4 4 4 5 4 3 5 6 6 7 7 7 5 2 1 2 2 4 4 2 3 7 6 8 12 13 13 12 10 12 13 11 11 14 14 16 20 20 23 24 15 10 18 21 12 7 16 28 30 27
5 4 4 5 5 5 5 6 6 6 7 7 8 8 8 8 9 8 8 7 6 6 6 7 8 6 5 4 4 3 2 2 3 2 2 4 4 2 4 5 5 5 4 3 4 5 5 6 6 7 7 4 2 2 3 2 2 1 4 6 4 7 19 20 12 9 7 4 8 9 9 13 14 13 18 22 23 24 17 10 13 16 12 10 19 30 28 22
5 4 4 5 6 5 5 6 5 5 7 8 8 7 6 8 9 9 9 8 7 7 6 7 8 6 5 5 4 3 2 2 2 1 2 3 3 3 4 5 5 4 3 4 4 4 5 5 6 7 6 5 4 3 2 -0 2 5 5 6 6 10 20 21 9 8 11 7 7 9 7 11 15 13 14 21 27 25 17 13 16 13 8 12 23 31 27 20
Height
5790 5791 5792 5793 5795 5797 5798 5799 5800 5801 5803 5804 5804 5804 5804 5805 5805 5805 5805 5805 5805 5805 5805 5804 5804 5803 5802 5802 5801 5801 5800 5800 5799 5798 5798 5797 5796 5795 5794 5793 5792 5791 5790 5789 5788 5786 5785 5784 5783 5782 5781 5779 5778 5776 5775 5773 5772 5770 5768 5767 5765 5763 5762 5760 5758 5757 5755 5753 5751 5749 5747 5746 5743 5741 5739 5737 5734 5732 5730 5727 5725 5723 5721 5719 5718 5716 5714 5712
5791 5792 5793 5794 5796 5797 5798 5799 5800 5801 5803 5804 5804 5804 5804 5805 5805 5805 5805 5805 5805 5805 5804 5804 5803 5802 5802 5801 5801 5801 5800 5800 5799 5799 5798 5797 5796 5795 5794 5793 5792 5791 5789 5788 5787 5786 5785 5784 5783 5781 5780 5778 5777 5775 5774 5772 5770 5769 5767 5765 5763 5761 5760 5758 5756 5754 5753 5751 5749 5747 5745 5743 5741 5738 5736 5734 5732 5729 5727 5724 5721 5719 5717 5715 5713 5711 5709 5707
5792 5793 5794 5795 5796 5798 5799 5800 5801 5802 5803 5803 5804 5804 5804 5805 5805 5806 5806 5805 5805 5804 5804 5803 5802 5802 5802 5801 5801 5801 5801 5800 5800 5799 5798 5797 5796 5795 5794 5793 5792 5790 5789 5788 5787 5786 5785 5783 5782 5781 5779 5778 5776 5774 5773 5771 5769 5767 5765 5763 5761 5759 5758 5756 5754 5752 5750 5748 5746 5744 5742 5740 5738 5736 5733 5731 5729 5726 5723 5720 5717 5715 5712 5709 5707 5705 5703 5701
5792 5794 5795 5796 5797 5798 5799 5800 5801 5802 5803 5803 5804 5804 5804 5805 5805 5806 5805 5805 5804 5804 5803 5802 5802 5802 5802 5802 5802 5801 5801 5800 5800 5799 5798 5797 5796 5795 5794 5793 5791 5790 5789 5788 5787 5786 5785 5783 5782 5780 5778 5777 5775 5773 5771 5770 5768 5766 5764 5762 5760 5758 5756 5754 5752 5750 5748 5746 5744 5741 5739 5737 5735 5732 5730 5727 5725 5722 5719 5716 5713 5710 5707 5704 5702 5699 5697 5695
5793 5794 5795 5796 5797 5798 5800 5801 5801 5802 5803 5803 5804 5804 5805 5805 5805 5805 5805 5804 5804 5803 5803 5802 5802 5802 5802 5802 5802 5801 5801 5800 5800 5799 5798 5797 5796 5795 5794 5793 5791 5790 5789 5788 5787 5785 5784 5783 5781 5779 5777 5775 5774 5772 5770 5768 5766 5764 5762 5760 5758 5756 5754 5752 5750 5747 5745 5743 5741 5738 5736 5733 5731 5729 5726 5724 5721 5718 5715 5712 5709 5706 5703 5700 5697 5694 5691 5689
5793 5794 5795 5797 5798 5799 5800 5801 5802 5803 5803 5804 5804 5805 5805 5805 5805 5805 5804 5804 5803 5803 5803 5803 5803 5803 5803 5802 5802 5802 5801 5801 5800 5799 5798 5797 5796 5795 5794 5793 5791 5790 5789 5788 5786 5785 5783 5781 5779 5778 5776 5774 5772 5771 5769 5767 5765 5763 5761 5758 5756 5754 5752 5750 5748 5745 5743 5740 5738 5735 5733 5730 5727 5725 5723 5720 5717 5714 5711 5708 5705 5702 5699 5695 5692 5689 5686 5684
5794 5795 5796 5797 5799 5800 5801 5802 5802 5803 5804 5804 5804 5805 5805 5805 5805 5804 5804 5803 5803 5804 5804 5804 5803 5803 5803 5803 5802 5802 5801 5801 5800 5799 5798 5797 5796 5795 5794 5792 5791 5790 5788 5787 5785 5784 5782 5780 5779 5777 5775 5773 5772 5770 5768 5766 5763 5761 5759 5757 5755 5753 5751 5748 5746 5743 5740 5738 5735 5732 5729 5726 5724 5722 5719 5717 5713 5710 5707 5704 5701 5697 5694 5691 5688 5685 5681 5679
5794 5795 5797 5798 5799 5800 5801 5802 5803 5803 5804 5804 5804 5804 5804 5804 5804 5804 5804 5804 5804 5804 5804 5804 5804 5804 5804 5803 5803 5802 5801 5801 5800 5798 5797 5797 5796 5794 5793 5792 5791 5789 5788 5787 5785 5783 5782 5780 5778 5776 5775 5773 5771 5769 5767 5764 5762 5760 5758 5756 5753 5751 5749 5746 5744 5741 5738 5735 5732 5729 5726 5723 5720 5718 5716 5713 5708 5705 5703 5699 5695 5692 5688 5685 5682 5679 5676 5673
5794 5796 5797 5798 5799 5800 5801 5802 5803 5803 5804 5804 5804 5804 5804 5804 5804 5804 5805 5805 5805 5805 5804 5804 5804 5804 5804 5803 5803 5802 5801 5800 5799 5798 5797 5796 5795 5794 5793 5791 5790 5789 5788 5786 5785 5783 5781 5779 5778 5776 5774 5772 5770 5768 5765 5763 5761 5759 5756 5754 5752 5749 5746 5744 5741 5738 5736 5733 5729 5725 5722 5719 5717 5714 5713 5709 5704 5701 5698 5694 5690 5687 5684 5680 5677 5673 5670 5667
5795 5796 5797 5798 5799 5801 5802 5802 5803 5804 5804 5804 5804 5804 5804 5804 5805 5805 5805 5805 5805 5805 5805 5805 5805 5805 5804 5804 5803 5802 5801 5800 5799 5798 5797 5796 5795 5794 5793 5791 5790 5789 5787 5786 5784 5782 5780 5779 5777 5775 5773 5770 5768 5766 5764 5761 5759 5757 5754 5752 5750 5747 5744 5741 5738 5735 5732 5729 5726 5722 5718 5716 5713 5711 5708 5704 5700 5697 5693 5688 5685 5682 5678 5674 5671 5668 5664 5661
5795 5796 5797 5799 5800 5801 5802 5803 5803 5804 5804 5804 5804 5804 5805 5805 5805 5806 5806 5806 5806 5806 5806 5806 5806 5805 5805 5804 5803 5802 5801 5800 5799 5798 5798 5797 5795 5794 5793 5792 5790 5788 5787 5785 5783 5781 5780 5778 5776 5773 5771 5769 5767 5764 5762 5760 5757 5755 5752 5750 5747 5744 5741 5738 5734 5731 5728 5725 5722 5717 5714 5712 5710 5707 5704 5700 5696 5692 5687 5683 5680 5676 5672 5668 5664 5661 5657 5654
5795 5796 5798 5799 5800 5801 5802 5803 5803 5804 5804 5804 5804 5805 5805 5806 5806 5806 5807 5807 5807 5807 5806 5806 5806 5806 5805 5804 5804 5803 5802 5801 5800 5799 5798 5797 5796 5794 5793 5791 5790 5788 5786 5785 5783 5781 5779 5777 5774 5772 5770 5767 5765 5763 5760 5758 5755 5752 5749 5747 5744 5742 5738 5735 5731 5728 5724 5721 5717 5711 5708 5709 5707 5702 5698 5694 5690 5685 5682 5678 5673 5669 5665 5661 5658 5654 5650 5645
5795 5796 5798 5799 5800 5801 5802 5803 5803 5804 5804 5805 5805 5806 5806 5807 5807 5807 5807 5807 5807 5807 5807 5807 5806 5806 5805 5805 5804 5803 5802 5801 5800 5799 5798 5797 5796 5794 5793 5791 5789 5788 5786 5784 5782 5779 5777 5775 5772 5770 5768 5766 5763 5761 5758 5755 5752 5750 5747 5744 5741 5739 5736 5732 5727 5724 5721 5716 5712 5706 5702 5705 5703 5697 5692 5688 5684 5680 5676 5671 5666 5662 5658 5655 5650 5646 5642 5637
5795 5796 5798 5799 5800 5801 5802 5803 5803 5804 5805 5806 5806 5807 5807 5807 5808 5808 5808 5808 5808 5808 5808 5807 5807 5806 5806 5805 5805 5803 5802 5802 5801 5800 5799 5797 5796 5794 5793 5791 5789 5787 5785 5783 5781 5778 5776 5773 5771 5769 5766 5764 5761 5759 5756 5753 5750 5747 5744 5741 5738 5735 5733 5729 5724 5719 5716 5711 5707 5700 5696 5699 5699 5692 5686 5682 5678 5674 5669 5664 5659 5656 5652 5647 5642 5638 5633 5629
5795 5796 5798 5799 5800 5801 5802 5803 5804 5805 5806 5806 5807 5808 5808 5808 5808 5809 5809 5809 5809 5809 5808 5808 5807 5807 5806 5806 5805 5804 5803 5802 5801 5800 5798 5797 5796 5794 5792 5790 5788 5786 5784 5782 5780 5777 5775 5772 5770 5768 5765 5762 5760 5757 5754 5751 5748 5744 5741 5738 5735 5732 5729 5727 5721 5715 5711 5706 5702 5695 5690 5693 5694 5687 5680 5675 5671 5666 5661 5657 5653 5649 5644 5639 5635 5630 5625 5621
5795 5796 5798 5799 5800 5801 5802 5804 5805 5806 5807 5807 5808 5808 5809 5809 5809 5810 5810 5810 5809 5809 5808 5808 5808 5808 5807 5806 5805 5804 5803 5802 5801 5799 5798 5796 5795 5793 5792 5790 5788 5785 5783 5781 5779 5776 5774 5772 5769 5766 5763 5760 5757 5754 5752 5748 5745 5741 5738 5735 5732 5728 5725 5723 5719 5712 5707 5702 5697 5690 5685 5687 5688 5682 5675 5669 5664 5658 5654 5651 5646 5641 5636 5632 5627 5622 5616 5613
5795 5796 5798 5799 5801 5802 5803 5804 5805 5806 5807 5808 5809 5809 5810 5810 5810 5810 5810 5810 5810 5810 5809 5809 5809 5808 5807 5806 5805 5804 5803 5802 5801 5799 5797 5796 5794 5793 5791 5789 5787 5785 5783 5780 5778 5775 5773 5770 5767 5764 5761 5758 5754 5751 5748 5746 5743 5739 5735 5732 5728 5725 5721 5718 5716 5711 5704 5698 5693 5687 5682 5682 5682 5677 5670 5662 5656 5651 5648 5644 5639 5633 5629 5624 5619 5613 5608 5606
5795 5797 5798 5800 5801 5802 5804 5805 5806 5807 5808 5809 5809 5810 5811 5811 5811 5811 5811 5811 5811 5811 5810 5810 5809 5809 5807 5806 5805 5804 5803 5802 5800 5798 5797 5795 5794 5792 5790 5788 5786 5784 5782 5779 5777 5774 5771 5768 5765 5762 5759 5755 5752 5749 5745 5742 5739 5735 5732 5728 5725 5722 5719 5714 5711 5707 5701 5694 5689 5682 5678 5677 5676 5673 5665 5656 5650 5646 5643 5637 5632 5627 5622 5616 5611 5605 5600 5598
5796 5797 5799 5800 5801 5803 5804 5806 5807 5808 5809 5810 5810 5811 5811 5811 5812 5812 5812 5812 5812 5811 5811 5810 5810 5809 5807 5806 5805 5804 5803 5802 5800 5798 5797 5795 5793 5792 5790 5788 5785 5783 5781 5778 5775 5772 5770 5767 5763 5760 5757 5754 5751 5747 5744 5740 5736 5732 5728 5725 5721 5717 5715 5711 5706 5702 5696 5690 5686 5678 5673 5672 5671 5668 5660 5651 5645 5641 5636 5631 5626 5621 5615 5608 5603 5598 5593 5589
5796 5798 5799 5801 5802 5804 5805 5807 5808 5809 5810 5811 5811 5812 5812 5812 5813 5813 5813 5813 5812 5812 5811 5811 5810 5809 5807 5806 5805 5804 5803 5801 5800 5798 5797 5796 5794 5791 5789 5787 5785 5782 5780 5777 5774 5771 5769 5765 5762 5759 5756 5753 5749 5746 5742 5738 5734 5730 5725 5722 5718 5713 5711 5709 5703 5698 5693 5686 5681 5675 5668 5667 5665 5660 5654 5645 5639 5634 5628 5624 5619 5613 5607 5601 5596 5590 5585 5580
5797 5798 5800 5802 5803 5805 5807 5808 5809 5810 5811 5812 5812 5813 5813 5813 5814 5814 5814 5813 5812 5812 5812 5811 5810 5809 5808 5807 5806 5804 5803 5802 5800 5799 5797 5795 5793 5791 5789 5786 5784 5781 5779 5776 5773 5770 5767 5764 5761 5758 5754 5751 5747 5744 5740 5736 5732 5728 5723 5719 5716 5711 5707 5705 5699 5694 5689 5682 5677 5670 5664 5663 5659 5653 5647 5640 5633 5628 5622 5617 5611 5605 5599 5593 5588 5582 5577 5572
5798 5799 5801 5803 5805 5806 5808 5809 5810 5811 5812 5813 5813 5814 5814 5814 5814 5815 5814 5813 5813 5812 5812 5811 5810 5809 5808 5807 5806 5805 5803 5802 5801 5799 5797 5795 5793 5790 5788 5786 5783 5781 5778 5775 5773 5770 5767 5763 5760 5756 5753 5749 5745 5742 5738 5735 5730 5725 5721 5716 5713 5708 5703 5702 5697 5689 5683 5678 5674 5667 5659 5657 5654 5647 5640 5633 5628 5621 5615 5609 5602 5597 5591 5585 5580 5575 5570 5564
5799 5801 5803 5804 5806 5807 5809 5810 5811 5812 5813 5814 5814 5815 5815 5815 5815 5815 5814 5814 5813 5813 5812 5811 5810 5809 5808 5807 5806 5805 5803 5802 5800 5799 5797 5794 5792 5790 5788 5785 5782 5780 5777 5774 5772 5769 5766 5762 5759 5755 5751 5748 5744 5740 5736 5732 5728 5723 5718 5713 5709 5704 5698 5695 5693 5686 5678 5671 5667 5662 5655 5653 5648 5641 5635 5627 5621 5616 5608 5602 5596 5590 5584 5578 5573 5567 5562 5556
5801 5803 5804 5806 5807 5809 5810 5812 5813 5814 5814 5815 5815 5816 5816 5816 5816 5815 5815 5814 5814 5813 5812 5811 5810 5809 5808 5807 5806 5805 5803 5802 5800 5798 5796 5794 5792 5790 5787 5785 5782 5779 5776 5773 5770 5767 5764 5761 5757 5754 5750 5746 5742 5738 5734 5730 5726 5721 5716 5710 5706 5701 5695 5689 5685 5682 5676 5669 5663 5655 5649 5650 5645 5634 5628 5622 5615 5609 5601 5595 5588 5582 5577 5570 5565 5559 5553 5547
5803 5804 5806 5808 5809 5811 5812 5813 5814 5815 5816 5816 5816 5817 5817 5816 5816 5816 5816 5815 5814 5814 5812 5812 5811 5810 5809 5807 5806 5805 5804 5802 5800 5798 5796 5794 5792 5790 5787 5784 5781 5779 5775 5772 5769 5766 5763 5759 5756 5752 5748 5744 5740 5736 5732 5727 5723 5719 5714 5708 5703 5698 5693 5687 5680 5675 5670 5664 5658 5648 5636 5638 5639 5627 5618 5614 5607 5600 5593 5587 5581 5574 5568 5562 5555 5550 5544 5538
5804 5806 5808 5810 5811 5812 5813 5815 5815 5816 5816 5817 5817 5817 5817 5817 5817 5816 5816 5815 5815 5814 5813 5812 5811 5810 5809 5808 5807 5805 5803 5802 5800 5798 5796 5794 5792 5789 5787 5784 5781 5778 5774 5771 5768 5765 5762 5758 5754 5750 5746 5742 5738 5733 5729 5724 5720 5715 5711 5706 5700 5694 5688 5682 5676 5669 5662 5655 5651 5644 5629 5623 5628 5623 5613 5606 5599 5592 5585 5579 5573 5567 5560 5553 5547 5541 5535 5529
5806 5808 5810 5811 5813 5814 5815 5816 5817 5817 5817 5818 5818 5818 5818 5818 5817 5817 5816 5816 5815 5814 5813 5812 5811 5810 5809 5808 5807 5805 5803 5801 5800 5798 5796 5793 5791 5789 5786 5784 5780 5777 5773 5770 5767 5764 5760 5757 5753 5749 5744 5740 5735 5731 5726 5721 5716 5711 5706 5701 5696 5690 5683 5677 5671 5665 5658 5652 5647 5641 5629 5617 5615 5613 5607 5600 5591 5584 5578 5571 5564 5558 5551 5544 5538 5532 5526 5519
5808 5810 5812 5813 5814 5815 5816 5817 5818 5818 5818 5818 5818 5818 5818 5818 5818 5817 5817 5816 5815 5814 5813 5813 5812 5811 5810 5808 5807 5805 5803 5801 5799 5797 5795 5793 5791 5788 5786 5783 5780 5776 5772 5769 5766 5763 5759 5755 5751 5747 5742 5738 5733 5728 5723 5718 5713 5708 5703 5697 5691 5684 5678 5672 5667 5661 5655 5649 5644 5636 5627 5616 5610 5606 5599 5592 5585 5576 5569 5562 5555 5549 5542 5535 5529 5523 5517 5510
5811 5812 5813 5814 5815 5816 5817 5818 5819 5819 5819 5819 5819 5819 5819 5819 5818 5818 5817 5816 5815 5814 5814 5813 5812 5811 5810 5808 5807 5805 5803 5801 5799 5797 5795 5793 5790 5788 5785 5782 5780 5776 5771 5767 5763 5760 5757 5753 5749 5745 5740 5736 5730 5724 5720 5714 5709 5704 5699 5694 5689 5682 5676 5669 5663 5659 5653 5646 5638 5630 5622 5611 5604 5601 5593 5584 5577 5569 5561 5554 5547 5540 5533 5527 5521 5515 5509 5503
5812 5814 5815 5816 5817 5818 5819 5819 5820 5820 5820 5820 5820 5820 5819 5819 5819 5818 5817 5817 5816 5815 5814 5814 5813 5811 5810 5808 5806 5804 5803 5801 5799 5797 5795 5792 5789 5787 5784 5781 5778 5774 5770 5765 5759 5756 5754 5750 5747 5743 5738 5733 5729 5723 5717 5711 5704 5699 5694 5691 5688 5682 5676 5670 5661 5654 5649 5643 5634 5623 5615 5604 5594 5592 5587 5578 5570 5563 5554 5547 5539 5533 5526 5520 5513 5508 5502 5498
5814 5815 5816 5817 5818 5819 5820 5820 5820 5821 5821 5821 5820 5820 5820 5819 5819 5819 5817 5817 5816 5816 5815 5814 5813 5811 5810 5808 5806 5805 5803 5800 5798 5796 5794 5791 5789 5786 5783 5780 5778 5775 5772 5767 5760 5755 5753 5749 5745 5741 5736 5732 5728 5722 5716 5709 5702 5695 5689 5683 5680 5676 5672 5666 5657 5647 5639 5634 5626 5616 5608 5600 5589 5582 5577 5570 5564 5556 5548 5540 5533 5525 5518 5511 5505 5501 5497 5492
5815 5817 5818 5819 5820 5820 5821 5821 5821 5821 5821 5821 5821 5821 5820 5820 5819 5819 5818 5818 5817 5816 5815 5814 5813 5811 5810 5808 5806 5804 5803 5800 5798 5796 5793 5791 5788 5786 5783 5780 5778 5775 5772 5768 5763 5756 5752 5748 5743 5739 5735 5729 5725 5721 5715 5709 5701 5693 5685 5676 5668 5661 5654 5649 5643 5635 5629 5625 5619 5609 5600 5593 5584 5575 5568 5561 5554 5547 5540 5532 5525 5517 5509 5504 5499 5495 5490 5485
5817 5818 5819 5820 5821 5821 5822 5822 5822 5822 5822 5822 5822 5821 5821 5821 5820 5819 5819 5818 5817 5816 5815 5814 5813 5811 5810 5808 5806 5804 5802 5800 5798 5796 5793 5790 5787 5785 5782 5779 5775 5772 5768 5765 5762 5757 5751 5748 5743 5737 5732 5727 5720 5715 5709 5703 5696 5687 5677 5667 5657 5647 5637 5632 5627 5622 5617 5615 5612 5603 5591 5583 5576 5568 5561 5553 5545 5538 5531 5524 5516 5509 5502 5497 5493 5488 5482 5476
5819 5820 5821 5821 5822 5822 5822 5822 5822 5823 5823 5822 5822 5822 5822 5821 5820 5820 5819 5819 5818 5817 5816 5814 5813 5812 5810 5808 5806 5804 5802 5800 5798 5795 5792 5790 5787 5784 5781 5777 5774 5770 5766 5762 5758 5754 5748 5743 5739 5733 5728 5722 5715 5708 5701 5695 5688 5681 5672 5661 5653 5645 5635 5626 5619 5612 5604 5601 5600 5595 5584 5575 5567 5559 5552 5545 5538 5531 5523 5516 5508 5502 5497 5491 5486 5480 5472 5465
5820 5821 5822 5822 5823 5823 5823 5823 5823 5823 5823 5823 5823 5823 5822 5822 5821 5821 5820 5819 5818 5817 5816 5815 5813 5812 5810 5808 5806 5804 5802 5800 5797 5795 5792 5789 5786 5783 5780 5776 5772 5768 5764 5760 5756 5752 5745 5738 5733 5728 5723 5717 5711 5704 5698 5691 5684 5677 5669 5660 5651 5645 5639 5632 5625 5615 5603 5594 5592 5588 5580 5571 5562 5555 5547 5537 5529 5523 5515 5508 5502 5497 5492 5485 5478 5470 5461 5453
5821 5822 5823 5823 5823 5823 5824 5824 5824 5824 5824 5824 5823 5823 5823 5822 5822 5821 5820 5820 5819 5817 5816 5815 5813 5811 5809 5808 5806 5804 5802 5799 5797 5794 5791 5789 5785 5782 5779 5775 5771 5767 5762 5757 5753 5750 5745 5737 5731 5726 5721 5715 5709 5702 5694 5688 5681 5674 5667 5660 5652 5643 5636 5629 5624 5617 5606 5594 5587 5581 5571 5564 5556 5546 5538 5529 5521 5514 5507 5501 5496 5491 5484 5477 5468 5459 5450 5440
5823 5823 5824 5824 5824 5824 5824 5824 5824 5824 5824 5824 5824 5824 5823 5823 5822 5821 5821 5820 5819 5817 5816 5814 5813 5811 5809 5808 5806 5803 5801 5799 5796 5793 5790 5788 5785 5781 5777 5773 5769 5765 5760 5756 5751 5747 5743 5737 5731 5725 5720 5714 5707 5700 5693 5684 5677 5670 5663 5657 5650 5642 5633 5622 5611 5603 5596 5585 5578 5573 5563 5554 5547 5537 5528 5521 5513 5506 5500 5495 5490 5483 5475 5466 5457 5448 5438 5428
5824 5824 5824 5825 5825 5825 5825 5825 5825 5825 5825 5825 5825 5824 5824 5823 5822 5822 5821 5820 5819 5817 5816 5814 5813 5811 5809 5808 5806 5803 5801 5798 5796 5793 5790 5787 5783 5780 5776 5772 5768 5763 5759 5754 5749 5745 5741 5737 5730 5723 5717 5711 5705 5699 5692 5684 5675 5668 5661 5652 5643 5633 5623 5615 5604 5593 5584 5574 5568 5566 5561 5551 5541 5532 5523 5514 5506 5499 5493 5487 5480 5472 5463 5453 5443 5434 5424 5415
5825 5825 5825 5826 5826 5826 5826 5826 5826 5826 5826 5825 5825 5825 5824 5824 5823 5822 5821 5820 5819 5817 5816 5814 5813 5811 5809 5808 5805 5803 5800 5798 5795 5792 5789 5786 5782 5779 5775 5771 5766 5762 5757 5753 5748 5743 5738 5734 5729 5722 5714 5708 5703 5697 5691 5684 5677 5669 5660 5652 5642 5631 5620 5613 5605 5594 5583 5571 5561 5554 5551 5547 5537 5527 5519 5509 5500 5493 5485 5477 5469 5459 5449 5439 5429 5419 5410 5401
5826 5826 5826 5827 5827 5827 5827 5827 5827 5827 5826 5826 5825 5825 5824 5824 5823 5822 5821 5820 5819 5817 5816 5814 5813 5811 5809 5807 5805 5803 5800 5797 5794 5791 5788 5785 5781 5777 5773 5769 5765 5761 5756 5752 5747 5741 5736 5731 5727 5721 5714 5707 5700 5694 5687 5680 5672 5663 5654 5646 5639 5632 5624 5616 5609 5600 5586 5572 5559 5547 5542 5542 5534 5521 5512 5504 5495 5487 5478 5467 5457 5446 5437 5427 5418 5408 5399 5390
5827 5827 5827 5827 5828 5828 5828 5828 5827 5827 5827 5826 5826 5825 5825 5824 5824 5823 5821 5820 5819 5817 5816 5814 5812 5811 5809 5807 5804 5802 5799 5796 5793 5790 5787 5784 5780 5776 5771 5767 5763 5759 5755 5751 5746 5740 5734 5729 5724 5719 5712 5703 5695 5687 5679 5671 5664 5656 5649 5642 5634 5625 5617 5608 5602 5598 5589 5576 5563 5550 5540 5535 5527 5516 5508 5500 5490 5481 5470 5458 5448 5438 5429 5420 5411 5403 5393 5385
5828 5828 5828 5828 5828 5828 5828 5828 5828 5828 5827 5827 5826 5826 5825 5825 5824 5823 5821 5820 5818 5817 5816 5814 5812 5810 5809 5806 5804 5801 5799 5796 5793 5789 5786 5782 5779 5775 5770 5766 5762 5758 5753 5749 5744 5739 5733 5727 5722 5717 5710 5702 5695 5688 5680 5673 5667 5661 5652 5642 5633 5622 5611 5600 5589 5584 5582 5576 5566 5553 5540 5532 5524 5514 5504 5495 5486 5477 5467 5455 5444 5434 5424 5414 5405 5396 5388 5378
5829 5829 5829 5829 5829 5829 5829 5829 5829 5828 5828 5827 5827 5826 5826 5825 5824 5823 5821 5820 5818 5817 5815 5814 5812 5810 5808 5806 5804 5801 5798 5795 5792 5789 5785 5782 5778 5773 5769 5765 5761 5756 5752 5747 5742 5738 5732 5726 5720 5717 5713 5707 5700 5693 5686 5679 5670 5662 5653 5641 5632 5622 5612 5602 5591 5581 5574 5568 5559 5547 5537 5531 5523 5511 5500 5491 5482 5473 5463 5451 5438 5425 5415 5405 5396 5387 5378 5367
5830 5830 5830 5830 5830 5830 5829 5829 5829 5829 5828 5827 5827 5826 5826 5825 5824 5823 5821 5820 5818 5817 5815 5813 5812 5810 5808 5805 5803 5800 5797 5794 5791 5788 5784 5781 5777 5772 5768 5764 5759 5755 5750 5745 5740 5735 5730 5723 5716 5711 5707 5702 5697 5690 5683 5675 5664 5654 5646 5637 5629 5622 5614 5606 5598 5587 5574 5565 5556 5542 5531 5526 5520 5509 5498 5488 5477 5466 5455 5442 5429 5415 5404 5394 5385 5376 5366 5355
5831 5831 5830 5830 5830 5830 5830 5830 5829 5829 5828 5828 5827 5827 5826 5825 5824 5822 5821 5819 5818 5816 5814 5813 5811 5809 5807 5805 5802 5799 5797 5794 5790 5787 5783 5780 5776 5771 5767 5763 5758 5753 5748 5744 5739 5733 5728 5721 5712 5704 5696 5688 5682 5676 5668 5663 5657 5649 5642 5634 5626 5619 5612 5603 5593 5583 5572 5563 5556 5542 5526 5519 5515 5505 5493 5481 5468 5456 5445 5432 5420 5408 5396 5386 5375 5366 5356 5345
5831 5831 5831 5831 5831 5831 5831 5830 5829 5829 5829 5828 5827 5827 5826 5825 5823 5822 5821 5819 5817 5816 5814 5812 5810 5808 5806 5804 5801 5798 5796 5793 5790 5786 5782 5778 5775 5771 5766 5762 5757 5752 5747 5742 5737 5732 5727 5721 5712 5704 5696 5688 5680 5673 5666 5659 5653 5648 5642 5635 5625 5614 5605 5596 5586 5579 5571 5562 5556 5546 5526 5512 5506 5495 5481 5471 5460 5447 5434 5421 5409 5399 5388 5378 5368 5358 5348 5337
5832 5832 5832 5832 5832 5832 5831 5831 5830 5829 5829 5828 5828 5827 5826 5824 5823 5822 5820 5818 5817 5815 5813 5811 5810 5808 5805 5803 5801 5798 5795 5792 5789 5785 5782 5777 5773 5769 5765 5760 5756 5751 5746 5741 5736 5730 5725 5720 5714 5705 5697 5691 5683 5676 5669 5661 5653 5646 5640 5632 5623 5612 5602 5593 5586 5579 5570 5557 5546 5539 5527 5510 5497 5486 5475 5464 5451 5437 5425 5413 5402 5391 5382 5373 5364 5353 5342 5330
5833 5833 5832 5832 5832 5832 5832 5831 5830 5830 5829 5828 5828 5827 5825 5824 5823 5821 5820 5818 5816 5814 5812 5811 5809 5807 5805 5802 5800 5798 5795 5792 5788 5784 5781 5777 5772 5768 5764 5759 5755 5750 5745 5740 5734 5729 5723 5718 5713 5707 5698 5691 5684 5676 5669 5662 5654 5645 5637 5629 5622 5613 5603 5595 5587 5576 5566 5552 5537 5529 5520 5507 5493 5484 5473 5459 5443 5430 5420 5410 5400 5391 5381 5371 5360 5347 5334 5323
5834 5833 5833 5833 5833 5832 5832 5831 5830 5830 5829 5828 5827 5826 5825 5824 5822 5820 5819 5817 5815 5814 5812 5810 5808 5806 5804 5801 5799 5797 5794 5791 5787 5783 5780 5776 5772 5767 5762 5758 5754 5749 5744 5738 5733 5727 5721 5716 5711 5706 5699 5692 5685 5677 5670 5662 5654 5645 5637 5628 5620 5613 5604 5594 5584 5573 5563 5553 5540 5526 5515 5506 5495 5482 5467 5454 5443 5433 5423 5412 5400 5388 5376 5364 5352 5340 5328 5318
5834 5834 5834 5833 5833 5832 5832 5831 5831 5830 5829 5828 5827 5826 5824 5823 5821 5820 5818 5816 5815 5813 5811 5809 5807 5805 5803 5800 5798 5795 5792 5789 5786 5782 5778 5775 5770 5766 5762 5757 5752 5748 5742 5737 5731 5725 5719 5714 5708 5704 5699 5693 5685 5677 5669 5661 5653 5644 5636 5627 5620 5615 5607 5593 5581 5570 5560 5550 5538 5525 5515 5505 5492 5477 5464 5455 5447 5434 5419 5405 5392 5380 5367 5356 5345 5334 5323 5314
5835 5834 5834 5834 5833 5832 5832 5831 5831 5830 5829 5828 5827 5825 5824 5822 5821 5819 5817 5816 5814 5812 5810 5808 5806 5804 5801 5799 5796 5793 5791 5788 5784 5781 5777 5773 5769 5765 5761 5756 5751 5747 5741 5735 5729 5723 5717 5712 5706 5702 5697 5691 5684 5677 5669 5661 5653 5644 5637 5629 5619 5611 5602 5589 5575 5563 5551 5541 5533 5524 5511 5496 5482 5473 5465 5455 5442 5426 5409 5394 5382 5372 5362 5351 5340 5329 5319 5310
5835 5835 5834 5834 5833 5832 5832 5831 5831 5830 5829 5827 5826 5825 5823 5821 5820 5818 5816 5815 5813 5811 5809 5807 5805 5803 5800 5797 5795 5792 5789 5786 5783 5779 5776 5772 5768 5764 5759 5755 5750 5745 5740 5734 5728 5722 5716 5710 5705 5700 5694 5689 5682 5675 5667 5660 5654 5645 5636 5627 5616 5604 5592 5582 5571 5560 5550 5541 5531 5519 5506 5494 5483 5471 5459 5445 5431 5416 5401 5388 5377 5366 5357 5347 5337 5327 5317 5307